Saint Bonnet de Bellac- Haute Vienne - France
Donnes mto: lundi, 13/08/2012
Date Horaire Temp. E. Hum. E. P.atmo. Pluie Vent Direction Direction Ensoleilleme Solaire P. de rose Temp au vent Rafales
13/08/2012 00:00 17,4 C 78 % 1015,4 hPa 0,0 mm 0,0 km/h (0 Bft) S-SO 202 0 min 0 W/m 13,5 C 17,4 C 0,0 km/h (0 Bft)
13/08/2012 00:10 17,2 C 79 % 1015,5 hPa 0,0 mm 0,0 km/h (0 Bft) S-SO 202 0 min 0 W/m 13,5 C 17,2 C 0,0 km/h (0 Bft)
13/08/2012 00:20 17,1 C 79 % 1015,5 hPa 0,0 mm 0,0 km/h (0 Bft) S-SO 202 0 min 0 W/m 13,4 C 17,1 C 0,0 km/h (0 Bft)
13/08/2012 00:30 17,0 C 80 % 1015,4 hPa 0,0 mm 0,0 km/h (0 Bft) S-SO 202 0 min 0 W/m 13,5 C 17,0 C 0,0 km/h (0 Bft)
13/08/2012 00:40 16,8 C 80 % 1015,4 hPa 0,0 mm 0,0 km/h (0 Bft) S 180 0 min 0 W/m 13,3 C 16,8 C 0,0 km/h (0 Bft)
13/08/2012 00:50 16,7 C 81 % 1015,5 hPa 0,0 mm 0,7 km/h (0 Bft) S 180 0 min 0 W/m 13,4 C 16,7 C 0,7 km/h (0 Bft)
13/08/2012 01:00 16,6 C 81 % 1015,5 hPa 0,0 mm 0,0 km/h (0 Bft) S 180 0 min 0 W/m 13,3 C 16,6 C 0,0 km/h (0 Bft)
13/08/2012 01:10 16,4 C 82 % 1015,4 hPa 0,0 mm 0,0 km/h (0 Bft) S 180 0 min 0 W/m 13,3 C 16,4 C 0,0 km/h (0 Bft)
13/08/2012 01:20 16,2 C 82 % 1015,5 hPa 0,0 mm 0,0 km/h (0 Bft) S 180 0 min 0 W/m 13,1 C 16,2 C 0,0 km/h (0 Bft)
13/08/2012 01:30 15,9 C 82 % 1015,4 hPa 0,0 mm 0,0 km/h (0 Bft) S 180 0 min 0 W/m 12,8 C 15,9 C 0,0 km/h (0 Bft)
13/08/2012 01:40 15,8 C 82 % 1015,3 hPa 0,0 mm 0,0 km/h (0 Bft) S 180 0 min 0 W/m 12,7 C 15,8 C 0,0 km/h (0 Bft)
13/08/2012 01:50 15,5 C 82 % 1015,2 hPa 0,0 mm 0,0 km/h (0 Bft) S-SE 157 0 min 0 W/m 12,4 C 15,5 C 0,0 km/h (0 Bft)
13/08/2012 02:00 15,4 C 83 % 1015,0 hPa 0,0 mm 0,0 km/h (0 Bft) SE 135 0 min 0 W/m 12,5 C 15,4 C 0,0 km/h (0 Bft)
13/08/2012 02:10 15,3 C 84 % 1015,1 hPa 0,0 mm 0,0 km/h (0 Bft) SE 135 0 min 0 W/m 12,6 C 15,3 C 0,0 km/h (0 Bft)
13/08/2012 02:20 15,0 C 84 % 1015,1 hPa 0,0 mm 0,0 km/h (0 Bft) SE 135 0 min 0 W/m 12,3 C 15,0 C 0,0 km/h (0 Bft)
13/08/2012 02:30 14,8 C 84 % 1015,1 hPa 0,0 mm 0,0 km/h (0 Bft) SE 135 0 min 0 W/m 12,1 C 14,8 C 0,0 km/h (0 Bft)
13/08/2012 02:40 14,6 C 85 % 1014,8 hPa 0,0 mm 0,0 km/h (0 Bft) SE 135 0 min 0 W/m 12,1 C 14,6 C 0,0 km/h (0 Bft)
13/08/2012 02:50 14,6 C 85 % 1014,8 hPa 0,0 mm 0,0 km/h (0 Bft) SE 135 0 min 0 W/m 12,1 C 14,6 C 0,0 km/h (0 Bft)
13/08/2012 03:02 14,6 C 86 % 1015,0 hPa 0,0 mm 0,0 km/h (0 Bft) S-SO 202 0 min 0 W/m 12,3 C 14,6 C 0,0 km/h (0 Bft)
13/08/2012 03:10 14,4 C 85 % 1014,9 hPa 0,0 mm 0,0 km/h (0 Bft) S 180 0 min 0 W/m 11,9 C 14,4 C 0,0 km/h (0 Bft)
13/08/2012 03:20 14,3 C 86 % 1014,8 hPa 0,0 mm 0,0 km/h (0 Bft) S 180 0 min 0 W/m 12,0 C 14,3 C 0,0 km/h (0 Bft)
13/08/2012 03:30 14,3 C 86 % 1014,7 hPa 0,0 mm 0,0 km/h (0 Bft) S 180 0 min 0 W/m 12,0 C 14,3 C 0,0 km/h (0 Bft)
13/08/2012 03:40 14,1 C 87 % 1014,7 hPa 0,0 mm 0,0 km/h (0 Bft) S 180 0 min 0 W/m 12,0 C 14,1 C 0,0 km/h (0 Bft)
13/08/2012 03:50 13,9 C 87 % 1014,6 hPa 0,0 mm 0,0 km/h (0 Bft) S-SE 157 0 min 0 W/m 11,8 C 13,9 C 0,0 km/h (0 Bft)
13/08/2012 04:00 13,9 C 87 % 1014,6 hPa 0,0 mm 0,0 km/h (0 Bft) S-SE 157 0 min 0 W/m 11,8 C 13,9 C 0,0 km/h (0 Bft)
13/08/2012 04:10 13,8 C 87 % 1014,7 hPa 0,0 mm 0,0 km/h (0 Bft) S-SE 157 0 min 0 W/m 11,7 C 13,8 C 0,0 km/h (0 Bft)
13/08/2012 04:20 13,8 C 87 % 1014,7 hPa 0,0 mm 0,0 km/h (0 Bft) S-SE 157 0 min 0 W/m 11,7 C 13,8 C 0,0 km/h (0 Bft)
13/08/2012 04:30 13,6 C 88 % 1014,7 hPa 0,0 mm 0,0 km/h (0 Bft) SE 135 0 min 0 W/m 11,6 C 13,6 C 0,0 km/h (0 Bft)
13/08/2012 04:40 13,6 C 88 % 1014,7 hPa 0,0 mm 0,0 km/h (0 Bft) SE 135 0 min 0 W/m 11,6 C 13,6 C 0,0 km/h (0 Bft)
13/08/2012 04:50 13,6 C 88 % 1014,7 hPa 0,0 mm 0,0 km/h (0 Bft) SE 135 0 min 0 W/m 11,6 C 13,6 C 0,0 km/h (0 Bft)
13/08/2012 05:00 13,5 C 88 % 1014,7 hPa 0,0 mm 0,0 km/h (0 Bft) SE 135 0 min 0 W/m 11,6 C 13,5 C 0,0 km/h (0 Bft)
13/08/2012 05:10 13,4 C 88 % 1014,5 hPa 0,0 mm 0,0 km/h (0 Bft) E-SE 112 0 min 0 W/m 11,5 C 13,4 C 0,0 km/h (0 Bft)
13/08/2012 05:20 13,3 C 88 % 1014,5 hPa 0,0 mm 0,0 km/h (0 Bft) E 90 0 min 0 W/m 11,4 C 13,3 C 0,0 km/h (0 Bft)
13/08/2012 05:30 13,2 C 88 % 1014,5 hPa 0,0 mm 0,0 km/h (0 Bft) E 90 0 min 0 W/m 11,3 C 13,2 C 0,0 km/h (0 Bft)
13/08/2012 05:40 13,1 C 88 % 1014,6 hPa 0,0 mm 0,0 km/h (0 Bft) E 90 0 min 0 W/m 11,2 C 13,1 C 0,0 km/h (0 Bft)
13/08/2012 05:50 13,1 C 89 % 1014,6 hPa 0,0 mm 0,0 km/h (0 Bft) E 90 0 min 0 W/m 11,3 C 13,1 C 0,0 km/h (0 Bft)
13/08/2012 06:00 13,1 C 89 % 1014,4 hPa 0,0 mm 0,4 km/h (0 Bft) E-NE 67 0 min 0 W/m 11,3 C 13,1 C 3,2 km/h (1 Bft)
13/08/2012 06:10 13,3 C 90 % 1014,5 hPa 0,0 mm 0,0 km/h (0 Bft) E-NE 67 0 min 0 W/m 11,7 C 13,3 C 0,0 km/h (0 Bft)
13/08/2012 06:20 13,5 C 90 % 1014,5 hPa 0,0 mm 0,0 km/h (0 Bft) E-NE 67 0 min 0 W/m 11,9 C 13,5 C 0,0 km/h (0 Bft)
13/08/2012 06:30 13,8 C 90 % 1014,5 hPa 0,0 mm 0,0 km/h (0 Bft) E-NE 67 0 min 0 W/m 12,2 C 13,8 C 0,0 km/h (0 Bft)
13/08/2012 06:40 13,9 C 90 % 1014,5 hPa 0,0 mm 0,0 km/h (0 Bft) E-NE 67 0 min 0 W/m 12,3 C 13,9 C 0,0 km/h (0 Bft)
13/08/2012 06:50 14,0 C 90 % 1014,5 hPa 0,0 mm 0,7 km/h (0 Bft) E-NE 67 0 min 0 W/m 12,4 C 14,0 C 3,6 km/h (1 Bft)
13/08/2012 07:00 14,1 C 90 % 1014,6 hPa 0,0 mm 0,0 km/h (0 Bft) E-NE 67 0 min 0 W/m 12,5 C 14,1 C 0,0 km/h (0 Bft)
13/08/2012 07:10 14,3 C 90 % 1014,8 hPa 0,0 mm 0,0 km/h (0 Bft) E-NE 67 0 min 0 W/m 12,7 C 14,3 C 0,0 km/h (0 Bft)
13/08/2012 07:20 14,4 C 90 % 1014,8 hPa 0,0 mm 0,0 km/h (0 Bft) E-NE 67 0 min 0 W/m 12,8 C 14,4 C 0,0 km/h (0 Bft)
13/08/2012 07:30 14,5 C 90 % 1014,8 hPa 0,0 mm 0,0 km/h (0 Bft) E-NE 67 0 min 0 W/m 12,9 C 14,5 C 0,0 km/h (0 Bft)
13/08/2012 07:40 14,7 C 90 % 1014,8 hPa 0,0 mm 0,0 km/h (0 Bft) E-NE 67 0 min 0 W/m 13,1 C 14,7 C 0,0 km/h (0 Bft)
13/08/2012 07:50 14,9 C 90 % 1014,8 hPa 0,0 mm 0,0 km/h (0 Bft) E-NE 67 0 min 0 W/m 13,3 C 14,9 C 0,0 km/h (0 Bft)
13/08/2012 08:00 15,1 C 90 % 1014,8 hPa 0,0 mm 0,0 km/h (0 Bft) E-NE 67 0 min 0 W/m 13,5 C 15,1 C 0,0 km/h (0 Bft)
13/08/2012 08:10 15,4 C 91 % 1014,8 hPa 0,0 mm 0,4 km/h (0 Bft) E-NE 67 0 min 0 W/m 13,9 C 15,4 C 0,4 km/h (0 Bft)
13/08/2012 08:20 15,5 C 91 % 1014,8 hPa 0,0 mm 1,1 km/h (1 Bft) E 90 0 min 0 W/m 14,0 C 15,5 C 3,6 km/h (1 Bft)
13/08/2012 08:30 15,7 C 91 % 1014,8 hPa 0,0 mm 0,0 km/h (0 Bft) E 90 0 min 0 W/m 14,2 C 15,7 C 0,0 km/h (0 Bft)
13/08/2012 08:40 15,8 C 91 % 1014,7 hPa 0,0 mm 0,0 km/h (0 Bft) E 90 0 min 0 W/m 14,3 C 15,8 C 0,0 km/h (0 Bft)
13/08/2012 08:50 16,0 C 91 % 1014,7 hPa 0,0 mm 0,7 km/h (0 Bft) S 180 0 min 0 W/m 14,5 C 16,0 C 4,0 km/h (1 Bft)
13/08/2012 09:00 16,1 C 91 % 1014,7 hPa 0,0 mm 2,5 km/h (1 Bft) SE 135 0 min 0 W/m 14,6 C 16,1 C 2,9 km/h (1 Bft)
13/08/2012 09:10 16,2 C 91 % 1014,8 hPa 0,0 mm 1,8 km/h (1 Bft) SE 135 0 min 0 W/m 14,7 C 16,2 C 3,6 km/h (1 Bft)
13/08/2012 09:20 16,4 C 91 % 1014,9 hPa 0,0 mm 0,0 km/h (0 Bft) E-SE 112 0 min 0 W/m 14,9 C 16,4 C 0,0 km/h (0 Bft)
13/08/2012 09:30 16,7 C 91 % 1014,9 hPa 0,0 mm 0,0 km/h (0 Bft) SE 135 0 min 0 W/m 15,2 C 16,7 C 0,0 km/h (0 Bft)
13/08/2012 09:40 17,1 C 91 % 1015,1 hPa 0,0 mm 0,0 km/h (0 Bft) S 180 0 min 0 W/m 15,6 C 17,1 C 0,0 km/h (0 Bft)
13/08/2012 09:50 17,3 C 90 % 1015,0 hPa 0,0 mm 0,7 km/h (0 Bft) S-SO 202 0 min 0 W/m 15,6 C 17,3 C 0,7 km/h (0 Bft)
13/08/2012 10:00 17,5 C 89 % 1015,1 hPa 0,0 mm 0,0 km/h (0 Bft) SO 225 0 min 0 W/m 15,7 C 17,5 C 0,0 km/h (0 Bft)
13/08/2012 10:10 17,9 C 89 % 1015,0 hPa 0,0 mm 0,0 km/h (0 Bft) O-SO 247 0 min 0 W/m 16,1 C 17,9 C 0,0 km/h (0 Bft)
13/08/2012 10:20 18,2 C 88 % 1015,1 hPa 0,0 mm 0,0 km/h (0 Bft) O 270 0 min 0 W/m 16,2 C 18,2 C 0,0 km/h (0 Bft)
13/08/2012 10:30 18,8 C 87 % 1015,1 hPa 0,0 mm 0,0 km/h (0 Bft) O 270 0 min 0 W/m 16,6 C 18,8 C 0,0 km/h (0 Bft)
13/08/2012 10:40 19,1 C 85 % 1015,0 hPa 0,0 mm 0,4 km/h (0 Bft) N-NO 337 0 min 0 W/m 16,5 C 19,1 C 1,4 km/h (1 Bft)
13/08/2012 10:50 19,3 C 83 % 1014,9 hPa 0,0 mm 0,4 km/h (0 Bft) N 360 0 min 0 W/m 16,3 C 19,3 C 0,4 km/h (0 Bft)
13/08/2012 11:00 19,9 C 81 % 1014,9 hPa 0,0 mm 0,0 km/h (0 Bft) SE 135 0 min 0 W/m 16,5 C 19,9 C 0,0 km/h (0 Bft)
13/08/2012 11:10 20,8 C 78 % 1015,0 hPa 0,0 mm 0,0 km/h (0 Bft) S-SO 202 0 min 0 W/m 16,8 C 20,8 C 0,0 km/h (0 Bft)
13/08/2012 11:20 21,1 C 76 % 1014,8 hPa 0,0 mm 0,0 km/h (0 Bft) S-SO 202 0 min 0 W/m 16,7 C 21,1 C 0,0 km/h (0 Bft)
13/08/2012 11:30 21,8 C 75 % 1014,8 hPa 0,0 mm 2,9 km/h (1 Bft) E-NE 67 0 min 0 W/m 17,2 C 21,8 C 2,9 km/h (1 Bft)
13/08/2012 11:40 22,8 C 71 % 1014,8 hPa 0,0 mm 2,2 km/h (1 Bft) SO 225 0 min 0 W/m 17,3 C 22,8 C 4,0 km/h (1 Bft)
13/08/2012 11:50 23,1 C 69 % 1014,7 hPa 0,0 mm 0,0 km/h (0 Bft) S 180 0 min 0 W/m 17,1 C 23,1 C 3,6 km/h (1 Bft)
13/08/2012 12:00 23,3 C 68 % 1014,6 hPa 0,0 mm 0,0 km/h (0 Bft) E-SE 112 0 min 0 W/m 17,1 C 23,3 C 3,2 km/h (1 Bft)
13/08/2012 12:10 24,1 C 66 % 1014,7 hPa 0,0 mm 1,8 km/h (1 Bft) N-NE 22 0 min 0 W/m 17,3 C 24,1 C 4,3 km/h (1 Bft)
13/08/2012 12:20 24,6 C 63 % 1014,6 hPa 0,0 mm 0,0 km/h (0 Bft) NE 45 0 min 0 W/m 17,1 C 24,6 C 0,0 km/h (0 Bft)
13/08/2012 12:30 25,1 C 60 % 1014,6 hPa 0,0 mm 5,8 km/h (2 Bft) O 270 0 min 0 W/m 16,8 C 25,1 C 11,5 km/h (2 Bft)
13/08/2012 12:40 25,1 C 59 % 1014,6 hPa 0,0 mm 1,1 km/h (1 Bft) SO 225 0 min 0 W/m 16,5 C 25,1 C 1,1 km/h (1 Bft)
13/08/2012 12:50 24,5 C 59 % 1014,5 hPa 0,0 mm 0,0 km/h (0 Bft) O-SO 247 0 min 0 W/m 15,9 C 24,5 C 0,0 km/h (0 Bft)
13/08/2012 13:00 24,4 C 59 % 1014,5 hPa 0,0 mm 0,0 km/h (0 Bft) S-SO 202 0 min 0 W/m 15,9 C 24,4 C 0,0 km/h (0 Bft)
13/08/2012 13:10 25,0 C 58 % 1014,6 hPa 0,0 mm 1,4 km/h (1 Bft) O 270 0 min 0 W/m 16,1 C 25,0 C 3,6 km/h (1 Bft)
13/08/2012 13:20 25,2 C 56 % 1014,6 hPa 0,0 mm 2,5 km/h (1 Bft) S-SO 202 0 min 0 W/m 15,8 C 25,2 C 6,5 km/h (2 Bft)
13/08/2012 13:30 25,2 C 57 % 1014,5 hPa 0,0 mm 1,8 km/h (1 Bft) O-SO 247 0 min 0 W/m 16,1 C 25,2 C 6,5 km/h (2 Bft)
13/08/2012 13:40 25,6 C 55 % 1014,5 hPa 0,0 mm 0,7 km/h (0 Bft) O 270 0 min 0 W/m 15,9 C 25,6 C 4,3 km/h (1 Bft)
13/08/2012 13:50 25,8 C 54 % 1014,4 hPa 0,0 mm 2,2 km/h (1 Bft) O-SO 247 0 min 0 W/m 15,8 C 25,8 C 4,0 km/h (1 Bft)
13/08/2012 14:00 26,1 C 53 % 1014,4 hPa 0,0 mm 3,6 km/h (1 Bft) O-NO 292 0 min 0 W/m 15,8 C 26,1 C 10,4 km/h (2 Bft)
13/08/2012 14:10 26,1 C 53 % 1014,3 hPa 0,0 mm 1,4 km/h (1 Bft) O-NO 292 0 min 0 W/m 15,8 C 26,1 C 6,8 km/h (2 Bft)
13/08/2012 14:20 25,9 C 51 % 1014,3 hPa 0,0 mm 3,6 km/h (1 Bft) SO 225 0 min 0 W/m 15,0 C 25,9 C 6,5 km/h (2 Bft)
13/08/2012 14:30 25,8 C 50 % 1014,3 hPa 0,0 mm 5,8 km/h (2 Bft) S-SO 202 0 min 0 W/m 14,6 C 25,8 C 7,6 km/h (2 Bft)
13/08/2012 14:40 26,1 C 50 % 1014,3 hPa 0,0 mm 1,1 km/h (1 Bft) O-SO 247 0 min 0 W/m 14,8 C 26,1 C 2,9 km/h (1 Bft)
13/08/2012 14:50 25,8 C 50 % 1014,3 hPa 0,0 mm 1,8 km/h (1 Bft) SO 225 0 min 0 W/m 14,6 C 25,8 C 3,6 km/h (1 Bft)
13/08/2012 15:00 25,8 C 51 % 1014,3 hPa 0,0 mm 3,2 km/h (1 Bft) SO 225 0 min 0 W/m 14,9 C 25,8 C 3,6 km/h (1 Bft)
13/08/2012 15:10 26,1 C 50 % 1014,2 hPa 0,0 mm 6,1 km/h (2 Bft) S-SO 202 0 min 0 W/m 14,8 C 26,1 C 6,1 km/h (2 Bft)
13/08/2012 15:20 26,1 C 49 % 1014,1 hPa 0,0 mm 2,5 km/h (1 Bft) S-SO 202 0 min 0 W/m 14,5 C 26,1 C 4,3 km/h (1 Bft)
13/08/2012 15:30 25,8 C 48 % 1014,0 hPa 0,0 mm 3,2 km/h (1 Bft) SO 225 0 min 0 W/m 13,9 C 25,8 C 4,3 km/h (1 Bft)
13/08/2012 15:40 25,8 C 50 % 1014,0 hPa 0,0 mm 2,2 km/h (1 Bft) S 180 0 min 0 W/m 14,6 C 25,8 C 3,6 km/h (1 Bft)
13/08/2012 15:50 25,9 C 50 % 1013,9 hPa 0,0 mm 1,1 km/h (1 Bft) O-SO 247 0 min 0 W/m 14,7 C 25,9 C 4,3 km/h (1 Bft)
13/08/2012 16:00 26,1 C 50 % 1014,0 hPa 0,0 mm 0,0 km/h (0 Bft) O-SO 247 0 min 0 W/m 14,8 C 26,1 C 0,0 km/h (0 Bft)
13/08/2012 16:10 26,1 C 50 % 1013,9 hPa 0,0 mm 1,8 km/h (1 Bft) SE 135 0 min 0 W/m 14,8 C 26,1 C 1,8 km/h (1 Bft)
13/08/2012 16:20 26,4 C 50 % 1013,7 hPa 0,0 mm 1,1 km/h (1 Bft) SE 135 0 min 0 W/m 15,1 C 26,4 C 1,1 km/h (1 Bft)
13/08/2012 16:30 26,4 C 49 % 1013,7 hPa 0,0 mm 0,0 km/h (0 Bft) SO 225 0 min 0 W/m 14,8 C 26,4 C 1,4 km/h (1 Bft)
13/08/2012 16:40 26,2 C 50 % 1013,9 hPa 0,0 mm 2,5 km/h (1 Bft) S-SO 202 0 min 0 W/m 14,9 C 26,2 C 4,3 km/h (1 Bft)
13/08/2012 16:50 25,9 C 50 % 1014,0 hPa 0,0 mm 2,9 km/h (1 Bft) S-SE 157 0 min 0 W/m 14,7 C 25,9 C 4,3 km/h (1 Bft)
13/08/2012 17:00 25,8 C 49 % 1013,9 hPa 0,0 mm 0,0 km/h (0 Bft) O-SO 247 0 min 0 W/m 14,3 C 25,8 C 0,0 km/h (0 Bft)
13/08/2012 17:10 25,9 C 49 % 1013,7 hPa 0,0 mm 0,0 km/h (0 Bft) S 180 0 min 0 W/m 14,4 C 25,9 C 0,0 km/h (0 Bft)
13/08/2012 17:20 26,1 C 49 % 1013,7 hPa 0,0 mm 0,7 km/h (0 Bft) SO 225 0 min 0 W/m 14,5 C 26,1 C 4,0 km/h (1 Bft)
13/08/2012 17:30 26,3 C 47 % 1013,4 hPa 0,0 mm 2,5 km/h (1 Bft) S 180 0 min 0 W/m 14,1 C 26,3 C 7,6 km/h (2 Bft)
13/08/2012 17:40 26,4 C 48 % 1013,4 hPa 0,0 mm 0,4 km/h (0 Bft) SO 225 0 min 0 W/m 14,5 C 26,4 C 0,4 km/h (0 Bft)
13/08/2012 17:50 26,6 C 47 % 1013,6 hPa 0,0 mm 0,7 km/h (0 Bft) SO 225 0 min 0 W/m 14,3 C 26,6 C 4,3 km/h (1 Bft)
13/08/2012 18:00 26,8 C 48 % 1013,5 hPa 0,0 mm 1,1 km/h (1 Bft) S 180 0 min 0 W/m 14,9 C 26,8 C 1,1 km/h (1 Bft)
13/08/2012 18:10 26,9 C 48 % 1013,6 hPa 0,0 mm 0,0 km/h (0 Bft) O-SO 247 0 min 0 W/m 14,9 C 26,9 C 0,0 km/h (0 Bft)
13/08/2012 18:20 26,9 C 48 % 1013,5 hPa 0,0 mm 0,0 km/h (0 Bft) N 360 0 min 0 W/m 14,9 C 26,9 C 0,0 km/h (0 Bft)
13/08/2012 18:30 26,8 C 48 % 1013,4 hPa 0,0 mm 2,5 km/h (1 Bft) N 360 0 min 0 W/m 14,9 C 26,8 C 4,3 km/h (1 Bft)
13/08/2012 18:40 27,1 C 48 % 1013,4 hPa 0,0 mm 0,0 km/h (0 Bft) O-SO 247 0 min 0 W/m 15,1 C 27,1 C 0,0 km/h (0 Bft)
13/08/2012 18:50 27,0 C 47 % 1013,3 hPa 0,0 mm 0,0 km/h (0 Bft) SO 225 0 min 0 W/m 14,7 C 27,0 C 0,0 km/h (0 Bft)
13/08/2012 19:00 26,8 C 47 % 1013,3 hPa 0,0 mm 0,7 km/h (0 Bft) S-SE 157 0 min 0 W/m 14,5 C 26,8 C 3,6 km/h (1 Bft)
13/08/2012 19:10 26,5 C 48 % 1013,3 hPa 0,0 mm 0,0 km/h (0 Bft) O-SO 247 0 min 0 W/m 14,6 C 26,5 C 0,0 km/h (0 Bft)
13/08/2012 19:20 26,3 C 48 % 1013,1 hPa 0,0 mm 0,0 km/h (0 Bft) O-SO 247 0 min 0 W/m 14,4 C 26,3 C 0,0 km/h (0 Bft)
13/08/2012 19:30 26,1 C 49 % 1013,1 hPa 0,0 mm 0,0 km/h (0 Bft) O 270 0 min 0 W/m 14,5 C 26,1 C 0,0 km/h (0 Bft)
13/08/2012 19:40 25,9 C 50 % 1013,0 hPa 0,0 mm 0,4 km/h (0 Bft) NO 315 0 min 0 W/m 14,7 C 25,9 C 3,2 km/h (1 Bft)
13/08/2012 19:50 25,6 C 51 % 1013,0 hPa 0,0 mm 0,0 km/h (0 Bft) NO 315 0 min 0 W/m 14,7 C 25,6 C 0,0 km/h (0 Bft)
13/08/2012 20:00 25,3 C 51 % 1013,0 hPa 0,0 mm 0,0 km/h (0 Bft) NO 315 0 min 0 W/m 14,4 C 25,3 C 0,0 km/h (0 Bft)
13/08/2012 20:10 24,8 C 52 % 1013,3 hPa 0,0 mm 0,0 km/h (0 Bft) NO 315 0 min 0 W/m 14,3 C 24,8 C 0,0 km/h (0 Bft)
13/08/2012 20:20 24,4 C 53 % 1013,2 hPa 0,0 mm 0,0 km/h (0 Bft) NO 315 0 min 0 W/m 14,2 C 24,4 C 0,0 km/h (0 Bft)
13/08/2012 20:30 23,9 C 54 % 1012,9 hPa 0,0 mm 0,0 km/h (0 Bft) NO 315 0 min 0 W/m 14,0 C 23,9 C 0,0 km/h (0 Bft)
13/08/2012 20:40 23,4 C 55 % 1013,1 hPa 0,0 mm 0,0 km/h (0 Bft) NO 315 0 min 0 W/m 13,8 C 23,4 C 0,0 km/h (0 Bft)
13/08/2012 20:50 23,1 C 56 % 1013,0 hPa 0,0 mm 0,0 km/h (0 Bft) NO 315 0 min 0 W/m 13,8 C 23,1 C 0,0 km/h (0 Bft)
13/08/2012 21:00 22,6 C 57 % 1012,9 hPa 0,0 mm 0,0 km/h (0 Bft) NO 315 0 min 0 W/m 13,6 C 22,6 C 0,0 km/h (0 Bft)
13/08/2012 21:10 22,2 C 58 % 1013,1 hPa 0,0 mm 0,0 km/h (0 Bft) NO 315 0 min 0 W/m 13,5 C 22,2 C 0,0 km/h (0 Bft)
13/08/2012 21:20 21,6 C 59 % 1013,1 hPa 0,0 mm 0,0 km/h (0 Bft) NO 315 0 min 0 W/m 13,2 C 21,6 C 0,0 km/h (0 Bft)
13/08/2012 21:30 21,1 C 61 % 1013,1 hPa 0,0 mm 0,0 km/h (0 Bft) O-NO 292 0 min 0 W/m 13,3 C 21,1 C 0,0 km/h (0 Bft)
13/08/2012 21:40 20,5 C 62 % 1013,2 hPa 0,0 mm 0,0 km/h (0 Bft) O-NO 292 0 min 0 W/m 13,0 C 20,5 C 0,0 km/h (0 Bft)
13/08/2012 21:50 20,1 C 64 % 1013,3 hPa 0,0 mm 0,0 km/h (0 Bft) O-NO 292 0 min 0 W/m 13,1 C 20,1 C 0,0 km/h (0 Bft)
13/08/2012 22:00 19,6 C 65 % 1013,3 hPa 0,0 mm 0,0 km/h (0 Bft) O-NO 292 0 min 0 W/m 12,8 C 19,6 C 0,0 km/h (0 Bft)
13/08/2012 22:10 19,3 C 65 % 1013,3 hPa 0,0 mm 0,0 km/h (0 Bft) O-NO 292 0 min 0 W/m 12,6 C 19,3 C 0,0 km/h (0 Bft)
13/08/2012 22:20 18,8 C 66 % 1013,3 hPa 0,0 mm 0,0 km/h (0 Bft) O-NO 292 0 min 0 W/m 12,3 C 18,8 C 0,0 km/h (0 Bft)
13/08/2012 22:30 18,5 C 67 % 1013,3 hPa 0,0 mm 0,0 km/h (0 Bft) O-NO 292 0 min 0 W/m 12,3 C 18,5 C 0,0 km/h (0 Bft)
13/08/2012 22:40 18,3 C 69 % 1013,2 hPa 0,0 mm 0,0 km/h (0 Bft) N 360 0 min 0 W/m 12,5 C 18,3 C 0,0 km/h (0 Bft)
13/08/2012 22:50 18,1 C 71 % 1013,2 hPa 0,0 mm 0,0 km/h (0 Bft) E-NE 67 0 min 0 W/m 12,8 C 18,1 C 0,0 km/h (0 Bft)
13/08/2012 23:00 18,0 C 72 % 1013,3 hPa 0,0 mm 0,0 km/h (0 Bft) E-NE 67 0 min 0 W/m 12,9 C 18,0 C 0,0 km/h (0 Bft)
13/08/2012 23:10 17,8 C 72 % 1013,3 hPa 0,0 mm 0,0 km/h (0 Bft) E-NE 67 0 min 0 W/m 12,7 C 17,8 C 0,0 km/h (0 Bft)
13/08/2012 23:20 17,4 C 72 % 1013,3 hPa 0,0 mm 0,0 km/h (0 Bft) E-NE 67 0 min 0 W/m 12,3 C 17,4 C 0,0 km/h (0 Bft)
13/08/2012 23:30 17,1 C 73 % 1013,4 hPa 0,0 mm 0,0 km/h (0 Bft) E-NE 67 0 min 0 W/m 12,2 C 17,1 C 0,0 km/h (0 Bft)
_ Min-Heure 06:00 19:00 21:00 - 23:30 - - - - 05:40 06:00 23:30
Minimum _ 13,1 C 47 % 1012,9 hPa - 0,0 km/h (0 Bft) - - - - 11,2 C 13,1 C 0,0 km/h (0 Bft)
_ Max-Heure 18:40 09:40 01:20 23:30 15:10 - - 23:30 23:30 12:10 18:40 12:30
Maximum _ 27,1 C 91 % 1015,5 hPa 0,0 mm 6,1 km/h
S-SO (2 Bft)
- - 0 min 0 W/m 17,3 C 27,1 C 11,5 km/h
O (2 Bft)
Moyenne _ 20,0 C 71 % 1014,3 hPa #0,0 mm 0,6 km/h (0 Bft) E-NE - #0 min. 0 W/m 14,0 C 20,0 C 1,3 km/h (1 Bft)
Saint Bonnet de Bellac- Haute Vienne - France